NUSANTARA LIMA (NUSANT*) (65588 NORAD) Tracking and Keplerian Element Data

This shows tracking and keplerian element data for the satellite.

Feedback or suggestion? Click here.




ElementValue
Catalog65588
NameNUSANTARA LIMA (NUSANT*)
Epoch Orbit91
Epoch Day354.13655841
Epoch Year2025
RAAN325.0642
Inclination0.1116
Eccentricity0.1288094
Argument of Perigee57.3597
Mean Anonmoly228.5305
Mean Motion1.00278592
Decay Rate-3.54E-06
L11 65588U 25205A 25354.13655841 -.00000354 00000+0 00000+0 0 9999
L22 65588 0.1116 325.0642 1288094 57.3597 228.5305 1.00278592 912



Live tracking and technical data element details for NUSANTARA LIMA (NUSANT*) (NORAD 65588). NUSANTARA LIMA (NUSANT*) can be tracked NOW for your location showing map with azimuth and elevation plus other details from your city location.







IsCatalogInMostPopularTable: catalog: 65588, numindb: 7
Update: records affected: 1



GetName: 65588 NUSANTARA LIMA (NUSANT*)

Hit Count: updated at: Tue, 21 Apr 2026 20:28:32 GMT